Location: Newark
(23.1300°N, 73.6109°E)
Time: 17:02:48
(UTC+00:00)

AO-7 - Pass Details

Date: 15 July 2020
Orbit: 1440 x 1458 km, 101.8° (Epoch: 05 August)

Event Time Altitude Azimuth Distance (km) Brightness Sun altitude
Rises 21:40:37 0° 32° (NNE) 4,563 ? -32.6°
Reaches altitude 10° 21:43:56 10° 43° (NE) 3,582 ? -32.1°
Maximum altitude 21:50:55 29° 101° (E) 2,401 ? -31.0°
Enters shadow 21:57:24 12° 156° (SSE) 3,447 ? -30.0°
